Weather in Schaan

Liechtenstein     47°09′45″N   9°30′30″E
temp.,
°C
wind,
m/s
gust,
m/s
humid.,
%
clouds,
%
prec.,
mm/h
press.,
hPa
HPBL,
m
22 january, fri
fri2201:000ssw3485100 0.0 100478
04:000sw2291100 0.2 100235
07:00−1s3391100 0.6 100187
10:00+1s358587 0.0 999134
13:00+4s249869 0.0 997123
16:00+2ssw229571 0.0 99527
19:00+1ssw228685 0.0 99428
22:000wsw2294100 0.1 99236
23 january, sat
sat2301:000nw2299100 2.4 993116
04:00−1wnw3797100 5.6 996698
07:00−2sw1296100 7.2 999103
10:00−2sse1193100 0.1 999119
13:000nnw1190100 0.1 998388
16:00−1ene1196100 0.1 99873
19:00−4s2292100 0.1 99922
22:00−6s338671 0.0 99946
24 january, sun
sun2401:00−6s338367 0.0 100079
04:00−5ssw249398 0.7 1000106
07:00−5ssw229698 0.9 100353
10:00−3wsw129493 0.6 1004178
13:00−1se018487 0.8 1003625
16:00−2ese118845 0.0 100223
19:00−6s228655 0.0 100425
22:00−7ssw2386100 0.0 100446
25 january, mon
mon2501:00−6s2490100 0.1 100592
04:00−7s2393100 0.3 100672
07:00−6sw2394100 0.8 1009149
10:00−4sw3691100 1.2 1012675
13:00−3wsw2589100 2.5 1013638
16:00−4ssw1388100 0.4 1014167
19:00−5ssw3693100 1.2 1016308
22:00−5ssw3691100 0.3 1018218
26 january, tue
tue2601:00−6ssw3492100 0.8 101998
04:00−6s2395100 0.4 1020101
07:00−6s2496100 1.1 1021147
10:00−4s1295100 0.6 1021208
13:00−1wnw1389100 1.9 1020645
16:00−2n019299 0.4 102029
19:00−4s229299 0.4 102235
22:00−5s2388100 0.0 102184